Location: Remedello Sotto
(45.2500°N, 10.3667°E)
Time: 10:35:51
(UTC+00:00)

Cosmos 2278 Rocket - Pass Details

Date: 03 February 2023
Orbit: 841 x 845 km, 71.0° (Epoch: 31 March)

Event Time Altitude Azimuth Distance (km) Brightness Sun altitude
Rises 19:56:21 0° 332° (NNW) 3,414 5.9 -36.7°
Reaches altitude 10° 19:58:48 10° 332° (NNW) 2,475 5.0 -37.1°
Enters shadow 20:00:49 23° 330° (NNW) 1,735 4.1 -37.5°
